Regional Weather Roundup
Issued by NWS

Home | Current Version | Previous Version | Graphics & Text | Print | Product List | Glossary On
Versions: 1 2 3 4 5 6 7 8 9 10 11 12 13 14 15 16 17 18 19 20 21 22 23 24 25 26 27 28 29 30 31 32 33 34 35 36 37 38 39 40 41 42 43 44 45 46 47 48 49 50
000
ASUS43 KOAX 231810
RWRNE

WEATHER ROUNDUP FOR NEBRASKA
NATIONAL WEATHER SERVICE OMAHA NE
100 PM CDT WED AUG 23 2017

NOTES: SATELLITE DATA IS BEING USED TO AUGMENT CLOUD COVER ABOVE
       12000 FEET.
       "FAIR" INDICATES FEW OR NO CLOUDS BELOW 12,000 FEET WITH NO
       SIGNIFICANT WEATHER AND/OR OBSTRUCTIONS TO VISIBILITY.


NEZ001>004-019>022-054>056-231900-
NEBRASKA PANHANDLE

CITY           SKY/WX    TMP DP  RH WIND       PRES   REMARKS
SCOTTSBLUFF    SUNNY     78  59  51 SE8       30.09F
6HR MIN TEMP:  55; 6HR MAX TEMP:  78;

ALLIANCE       SUNNY     79  59  50 S10       30.09F
6HR MIN TEMP:  53; 6HR MAX TEMP:  79;

CHADRON        SUNNY     84  56  38 VRB3      30.02F
6HR MIN TEMP:  56; 6HR MAX TEMP:  85;

GORDON         FAIR      83  57  41 SW9       30.06F
6HR MIN TEMP:  59; 6HR MAX TEMP:  83;

KIMBALL        SUNNY     82  55  39 E3        30.15F
SIDNEY         SUNNY     82  56  40 S8        30.13F
6HR MIN TEMP:  56; 6HR MAX TEMP:  82;

$$

NEZ057>060-069>072-079>082-231900-
SOUTHWEST NEBRASKA

CITY           SKY/WX    TMP DP  RH WIND       PRES   REMARKS
NORTH PLATTE   SUNNY     78  55  44 S15G25    30.12F
6HR MIN TEMP:  58; 6HR MAX TEMP:  78;

IMPERIAL       SUNNY     80  58  46 S16G28    30.13F
6HR MIN TEMP:  56; 6HR MAX TEMP:  81;

LEXINGTON      SUNNY     77  51  40 S15       30.15F
MCCOOK         SUNNY     81  51  35 S13       30.14F
6HR MIN TEMP:  56; 6HR MAX TEMP:  81;

OGALLALA       SUNNY     79  60  52 S12G21    30.11F
$$

NEZ005>010-023>029-035>040-094-231900-
NORTH CENTRAL NEBRASKA

CITY           SKY/WX    TMP DP  RH WIND       PRES   REMARKS
VALENTINE      SUNNY     85  54  34 S18G25    30.03F
6HR MIN TEMP:  58; 6HR MAX TEMP:  85;

AINSWORTH      SUNNY     79  58  47 S18G25    30.07F
BROKEN BOW     SUNNY     79  48  33 S20G28    30.12F
6HR MIN TEMP:  56; 6HR MAX TEMP:  80;

O`NEILL        SUNNY     78  56  46 S15       30.09F
ORD            SUNNY     76  53  44 S15       30.11F
6HR MIN TEMP:  52; 6HR MAX TEMP:  76;

THEDFORD       SUNNY     80  56  44 S21G28    30.10F
$$

NEZ041-046>049-061>064-073>077-083>087-231900-
SOUTH CENTRAL NEBRASKA

CITY           SKY/WX    TMP DP  RH WIND       PRES   REMARKS
GRAND ISLAND   SUNNY     77  55  46 S14       30.15F
6HR MIN TEMP:  56; 6HR MAX TEMP:  77;

AURORA         SUNNY     75  53  46 S12G17    30.15F
HASTINGS       SUNNY     75  53  46 S9        30.17F
6HR MIN TEMP:  56; 6HR MAX TEMP:  75;

HEBRON         SUNNY     77  52  41 S8        30.16F
HOLDREGE       SUNNY     74  50  42 S13       30.16F
KEARNEY        SUNNY     75  57  53 S14G20    30.16F
YORK           SUNNY     73  55  53 S10       30.15F
$$

NEZ011>018-030>034-042>045-231900-
NORTHEAST NEBRASKA

CITY           SKY/WX    TMP DP  RH WIND       PRES   REMARKS
NORFOLK        SUNNY     75  57  53 S9        30.11F
6HR MIN TEMP:  51; 6HR MAX TEMP:  75;

ALBION         MOSUNNY   75  60  58 S12G17    30.13F
BLAIR          SUNNY     75  54  47 SW6       30.15F
COLUMBUS       SUNNY     74  56  53 S9        30.15F
FREMONT        SUNNY     75  54  47 S6        30.15F
TEKAMAH        SUNNY     76  53  44 VRB6      30.13F
6HR MIN TEMP:  52; 6HR MAX TEMP:  77;

WAYNE          SUNNY     74  57  53 S12       30.13F
$$

NEZ050>053-065>068-078-088>093-231900-
SOUTHEAST NEBRASKA

CITY           SKY/WX    TMP DP  RH WIND       PRES   REMARKS
LINCOLN        SUNNY     77  56  48 S8        30.16F
6HR MIN TEMP:  53; 6HR MAX TEMP:  77;

OMAHA EPPLEY   SUNNY     77  52  41 S5        30.14F
6HR MIN TEMP:  58; 6HR MAX TEMP:  78;

BEATRICE       SUNNY     77  53  42 S7        30.15F
FALLS CITY     SUNNY     76  54  46 VRB3      30.15F
6HR MIN TEMP:  51; 6HR MAX TEMP:  77;

NEBRASKA CITY  SUNNY     74  56  53 CALM      30.16F
PLATTSMOUTH    SUNNY     74  53  46 CALM      30.16F
$$

NEZ044-045-051>053-067-231900-
OMAHA AREA

CITY           SKY/WX    TMP DP  RH WIND       PRES   REMARKS
OMAHA EPPLEY   SUNNY     77  52  41 S5        30.14F
6HR MIN TEMP:  58; 6HR MAX TEMP:  78;

BLAIR          SUNNY     75  54  47 SW6       30.15F
FREMONT        SUNNY     75  54  47 S6        30.15F
MILLARD        SUNNY     77  55  46 S3        30.14F
OFFUTT AFB     SUNNY     77  53  43 S6        30.14F
PLATTSMOUTH    SUNNY     74  53  46 CALM      30.16F
WAHOO          FAIR      75  55  49 S3        30.15F
$$




USA.gov is the U.S. government's official web portal to all federal, state and local government web resources and services.